Location: Bear Valley Community Church - Hurst
(32.8460°N, 97.1828°W)
Time: 06:10:03
(UTC+00:00)

Cosmos 1328 Rocket - Pass Details

Date: 04 July 2022
Orbit: 600 x 627 km, 82.5° (Epoch: 14 August)

Event Time Altitude Azimuth Distance (km) Brightness Sun altitude
Rises 08:40:06 0° 356° (N) 2,898 7.8 -26.6°
Reaches altitude 10° 08:42:21 10° 360° (N) 1,984 6.8 -26.3°
Enters shadow 08:46:34 67° 67° (ENE) 668 3.8 -25.8°
